Current Version              Previous Version:    01  02  03  04  05  06  07  08  09  10  11  12  13  14  15  16  17  18  19  20  21  22  23  24  25  26  27  28  29  30  
   31  32  33  34  35  36  37  38  39  40  41  42  43  44  45  46  47  48  49  50  51  52  53  54  55  56  57  58  59  60  

[Printable]
173
ASUS44 KFWD 311403
RWRTX
NORTH TEXAS HOURLY WEATHER ROUNDUP
NATIONAL WEATHER SERVICE FORT WORTH TX
900 AM CDT FRI OCT 31 2014

NOTE: "FAIR" INDICATES FEW OR NO CLOUDS BELOW 12,000 FEET WITH NO
SIGNIFICANT WEATHER AND/OR OBSTRUCTIONS TO VISIBILITY.

TXZ118-119-311500-
DALLAS/FORT WORTH METROPLEX

CITY           SKY/WX    TMP DP  RH WIND       PRES   REMARKS
DFW AIRPORT    SUNNY     56  42  59 N12       30.30R
DALLAS LOVE    MOSUNNY   56  41  57 N12       30.30R
FTW MEACHAM    SUNNY     56  40  55 N14       30.31R
DAL-EXECUTIVE  SUNNY     58  41  53 N15       30.29R
FTW-ALLIANCE   SUNNY     53  40  61 N12       30.31R
FTW-NAS-JRB    SUNNY     56  42  59 N12       30.36R
ARLINGTON      SUNNY     57  40  52 NW13      30.30R
GRAND PRAIRIE  SUNNY     57  43  58 MISG      30.32R
ADDISON        SUNNY     54  41  62 N13G23    30.30R
MESQUITE       SUNNY     57  43  58 N18G25    30.29R
LANCASTER      SUNNY     57  39  51 N14       30.30R
$$

TXZ091>094-102>105-117-120-121-131>134-311500-
NORTH CENTRAL TEXAS

CITY           SKY/WX    TMP DP  RH WIND       PRES   REMARKS
SHRMAN/DENISON SUNNY     53  44  71 N12       30.33R
GAINESVILLE    SUNNY     52  40  64 N14       30.35R
BRIDGEPORT     SUNNY     53  41  64 N7        30.36R
DECATUR        SUNNY     53  38  58 N13       30.33R
DENTON         SUNNY     53  40  61 N15       30.31R
MCKINNEY       SUNNY     54  42  64 N13       30.30R
GREENVILLE     SUNNY     55  41  58 N16       30.28R
ROCKWALL       SUNNY     55  42  61 N15G24    30.27R
TERRELL        SUNNY     57  41  55 N14       30.28R
WAXAHACHIE     SUNNY     56  43  60 N15G21    30.29R
CLEBURNE       SUNNY     54  45  71 N14       30.31R
GRANBURY       SUNNY     54  46  75 NW5       30.33R
$$

TXZ083>090-098>101-113>116-127>130-139>142-154-155-311500-
WESTERN NORTH TEXAS

CITY           SKY/WX    TMP DP  RH WIND       PRES   REMARKS
WICHITA FALLS  SUNNY     51  37  58 NE15      30.37R
WF-KICKAPOO    SUNNY     51  37  56 N20G26    30.39R
VERNON         SUNNY     52  36  54 N10       30.42R
ABILENE        SUNNY     50  37  61 N8        30.38R
ABILENE-DYESS  SUNNY     51  36  55 N10       30.37R
MINERAL WELLS  SUNNY     52  41  66 N12       30.33R
STEPHENVILLE   SUNNY     54  40  58 N9        30.35R
COMANCHE       SUNNY     53  44  72 N9        30.33R
COLEMAN        SUNNY     55  40  56 N10       30.35R
BRADY          SUNNY     57  41  54 N9        30.32R
$$

TXZ143>147-156>162-174-175-311500-
CENTRAL TEXAS

CITY           SKY/WX    TMP DP  RH WIND       PRES   REMARKS
WACO           SUNNY     56  44  64 NW9       30.27R
WACO-TSTC      SUNNY     57  45  62 N10         N/A
WACO-MCGREGOR  SUNNY     55  41  58 N7        30.29R
HILLSBORO      SUNNY     57  43  59 N13       30.27R
CORSICANA      SUNNY     57  42  57 N13       30.26R
MEXIA          SUNNY     57  43  61 N9        30.24R
HEARNE         SUNNY     56  50  80 NW5       30.25R
CAMERON        SUNNY     59  49  68 N9        30.25R
TEMPLE         SUNNY     57  41  54 NW10      30.26R
KILLEEN        SUNNY     57  47  67 N12       30.28R
KILLEEN-SKYLRK SUNNY     59  41  51 N12       30.26R
GATESVILLE     SUNNY     55  45  67 N5        30.31R
HAMILTON       SUNNY     56  42  60 N9        30.31R
LAMPASAS       SUNNY     57  47  71 N6        30.29R
$$

TXZ095>097-106>112-122>126-135>138-148>153-164>167-311500-
EAST TEXAS

CITY           SKY/WX    TMP DP  RH WIND       PRES   REMARKS
PARIS          SUNNY     52  39  62 N10       30.27R
SULPHUR SPRNGS SUNNY     55  44  65 N16       30.29R
MOUNT PLEASANT SUNNY     55  43  63 NW12      30.25R
MINEOLA        SUNNY     55  46  71 N15       30.26R
TYLER          SUNNY     56  45  66 N8        30.23R
LONGVIEW       SUNNY     56  46  69 N9        30.20R
MARSHALL       SUNNY     58  46  64 N13       30.21R
ATHENS         SUNNY     55  43  62 N9        30.24R
PALESTINE      SUNNY     54  48  82 NW3       30.23R
JACKSONVILLE   SUNNY     57  44  59 N6        30.22R
HENDERSON      SUNNY     58  44  60 N6        30.21R
NACOGDOCHES    SUNNY     57  46  67 N10       30.19R
LUFKIN         SUNNY     59  49  69 N5        30.18R
$$

SUPPLEMENTAL OBSERVATIONS (CENTRAL)

CITY           SKY/WX    TMP DP  RH WIND       PRES   REMARKS
$$

SUPPLEMENTAL OBSERVATIONS (WEST)

CITY           SKY/WX    TMP DP  RH WIND       PRES   REMARKS
$$

SUPPLEMENTAL OBSERVATIONS (EAST)

CITY           SKY/WX    TMP DP  RH WIND       PRES   REMARKS
$$

SUPPLEMENTAL OBSERVATIONS ARE A COLLECTION OF AUTOMATED INSTRUMENTS
THAT ARE MAINTAINED BY A VARIETY OF FEDERAL AND STATE AGENCIES.
CERTAIN ELEMENTS...SUCH AS HUMIDITY VALUES AND SUSTAINED WIND
SPEEDS...MAY BE APPROXIMATED.